Location: Newark
(52.1752°N, 10.4140°W)
Time: 01:57:13
(UTC+00:00)

N. Korean satellite - Pass Details

Date: 23 November 2019
Orbit: 456 x 506 km, 97.2° (Epoch: 07 December)

Event Time Altitude Azimuth Distance (km) Brightness Sun altitude
Rises 05:57:45 0° 22° (NNE) 2,617 10.5 -20.4°
Reaches altitude 10° 06:00:06 10° 35° (NE) 1,721 9.7 -20.1°
Maximum altitude 06:03:16 26° 94° (E) 1,007 8.9 -19.6°
Drops below altitude 10° 06:06:23 10° 153° (SSE) 1,688 9.8 -19.1°
Sets 06:08:40 0° 166° (SSE) 2,556 10.5 -18.8°
